#timestamp,LO_Frequency,Hit,StdDev 
1626231615.8,286047000.1,N
1626231635.6,286047002.8,N
1626231655.5,286047002.3,N
1626231675.3,286047002.5,N
1626231695.1,286047001.4,N
1626231715.9,286047004.3,N
1626231735.7,286047004.3,N
1626231755.6,286047003.9,N
1626231775.4,286047003.1,N
1626231795.2,286047003.6,N
1626231815.1,286047003.2,N
1626231816.0,286047003.2,N
1626231835.8,286047003.6,N
1626231855.6,286047003.8,N
1626231875.5,286047003.1,N
1626231895.3,286047004.0,N
1626231915.2,286047004.4,N
1626231935.9,286047003.8,N
1626231955.7,286047001.3,N
1626231975.6,286047004.3,Y
1626231995.4,286046999.7,P
1626232015.2,286047000.2,N
1626232035.1,286047000.5,N
1626232036.0,286047000.5,N
1626232055.8,286047000.3,N
1626232075.7,286046999.7,N
1626232095.5,286047001.7,N
1626232115.3,286047004.3,Y
1626232135.2,286047002.8,P
1626232155.0,286047002.1,N
1626232155.9,286047002.1,N
1626232175.8,286047002.4,N
1626232195.6,286047002.1,N
1626232215.4,286047002.2,Y
1626232235.3,286047001.0,P
1626232285.1,286047000.0,E
1626232295.1,286047001.1,N
1626232296.0,286047001.1,P
1626232315.8,286046998.2,P
1626232335.6,286046998.1,N
1626232355.5,286047000.3,N
1626232375.3,286047001.0,N
1626232395.2,286047000.5,N
1626232415.9,286047002.6,N
1626232435.7,286047001.7,N
1626232455.6,286047001.8,N
1626232475.4,286047005.6,Y
1626232495.2,286047005.4,P
1626232515.1,286047007.2,P
1626232516.0,286047007.2,N
1626232535.8,286047007.3,N
1626232555.7,286047006.8,N
1626232575.5,286047010.8,Y
1626232595.3,286047005.4,P
1626232615.2,286047006.0,P
1626232635.0,286047005.7,P
1626232635.9,286047005.7,Y
1626232655.8,286047000.6,P
1626232675.6,286046999.8,N
1626232695.4,286047000.6,N
1626232715.3,286047002.5,N
1626232735.1,286047004.3,N
1626232755.8,286047002.5,N
1626232775.7,286046999.7,N
1626232795.5,286046999.7,N
1626232815.4,286047002.3,N
1626232835.2,286047004.4,N
1626232855.0,286047003.7,N
1626232855.9,286047003.7,N
1626232875.8,286047005.5,N
1626232895.6,286047003.1,N
1626232915.4,286047004.2,N
1626232936.4,286047002.0,N
1626232955.3,286047003.5,N
1626232975.2,286047002.9,N
1626232995.0,286047007.4,Y
1626232995.9,286047007.4,P
1626233015.8,286047003.9,N
1626233035.6,286047002.0,N
1626233055.4,286047003.6,N
1626233075.3,286047002.1,N
1626233095.1,286047001.8,N
1626233115.8,286047002.1,N
1626233135.7,286047002.2,N
1626233155.5,286047000.7,N
1626233175.4,286047001.1,N
1626233195.2,286046999.4,N
1626233215.0,286046998.4,N
1626233215.9,286046998.4,N
1626233235.8,286046999.4,N
1626233255.6,286046997.5,N
1626233275.5,286046997.3,N
1626233295.3,286046997.8,N
1626233315.1,286046996.8,N
1626233335.9,286046998.0,N
1626233355.7,286046996.8,N
1626233375.5,286046995.6,N
1626233395.4,286046996.1,N
1626233415.2,286046996.3,N
1626233435.0,286046996.2,N
1626233436.0,286046996.2,N
1626233455.8,286046996.2,N
1626233475.6,286046996.4,N
1626233495.5,286046995.6,N
1626233515.3,286046999.1,N
1626233535.2,286046998.5,N
1626233555.9,286046999.9,N
1626233575.7,286047001.9,N
1626233595.6,286047001.9,N
1626233615.4,286047004.2,N
1626233635.2,286047002.5,N
1626233655.1,286047001.6,N
1626233656.0,286047001.6,N
1626233675.8,286047002.3,N
1626233695.7,286047002.1,N
1626233715.5,286047006.0,N
1626233735.3,286047005.1,N
1626233755.2,286047003.6,N
1626233775.9,286047004.4,N
1626233795.7,286047001.4,N
1626233815.6,286047003.0,N
1626233835.4,286047002.9,N
1626233855.2,286047004.8,N
1626233875.1,286047003.7,N
1626233876.0,286047003.7,N
1626233895.8,286047002.4,N
1626233915.7,286047000.4,N
1626233935.5,286047000.9,N
1626233955.4,286046999.8,N
1626233975.2,286047001.9,N
1626233995.0,286047000.3,N
1626233995.9,286047000.3,N
1626234015.8,286046998.6,N
1626234035.6,286046998.3,N
1626234055.4,286046999.1,N
1626234075.3,286046999.6,N
1626234095.1,286046997.0,N
1626234115.9,286046995.4,N
1626234135.7,286046995.7,N
1626234155.5,286046997.4,N
1626234175.4,286046998.0,N
1626234195.2,286046996.8,N
1626234215.1,286046997.2,N
1626234216.0,286046997.2,N
1626234235.8,286046996.1,N
1626234255.6,286046993.6,N
1626234275.5,286046996.0,N
1626234295.3,286046993.4,N
1626234315.1,286046993.4,N
1626234335.9,286046994.7,N
1626234355.7,286046992.5,N
1626234375.6,286046991.0,N
1626234395.4,286046991.1,N
1626234415.2,286046991.5,N
1626234435.1,286046989.5,Y
1626234436.0,286046989.5,P
1626234455.8,286046993.1,N
1626234475.7,286046993.0,N
1626234495.5,286046992.5,N
1626234515.3,286046994.1,N
1626234535.2,286046994.3,N
1626234555.0,286046994.3,N
1626234555.9,286046994.3,N
1626234575.7,286046994.5,N
1626234595.6,286046993.6,Y
1626234615.4,286047000.3,P
1626234635.3,286046998.1,N
1626234655.1,286046999.6,N
1626234675.8,286046999.6,N
1626234695.7,286046999.2,N
1626234715.5,286046999.2,N
1626234735.4,286046999.4,N
1626234755.2,286046997.2,N
1626234775.0,286046997.8,N
1626234775.9,286046997.8,N
1626234795.8,286046997.8,N
1626234815.6,286046997.1,N
1626234835.4,286046996.7,N
1626234855.3,286046997.4,N
1626234875.1,286046995.1,Y
1626234895.9,286046999.2,P
1626234915.7,286046997.0,P
1626234935.5,286046997.5,N
1626234955.4,286046995.4,Y
1626234975.2,286046997.7,P
1626234995.0,286046995.3,P
1626234995.9,286046995.3,P
1626235015.8,286046995.5,Y
1626235035.6,286047001.1,P
1626235055.5,286047000.2,N
1626235075.3,286047000.3,N
1626235095.1,286046999.8,N
1626235115.9,286047000.0,N
1626235135.7,286046999.7,N
1626235155.5,286047002.8,N
1626235175.4,286047002.0,N
1626235195.2,286047000.3,N
